Location: Beaurecueil
(43.5122°N, 5.5450°E)
Time: 08:16:41
(UTC+00:00)

Cosmos 1939 Rocket - Pass Details

Date: 17 January 2021
Orbit: 531 x 585 km, 97.4° (Epoch: 04 March)

Event Time Altitude Azimuth Distance (km) Brightness Sun altitude
Rises 17:43:43 0° 171° (S) 2,795 6.5 -13.3°
Reaches altitude 10° 17:45:53 10° 174° (S) 1,899 5.7 -13.6°
Maximum altitude 17:49:59 71° 258° (WSW) 618 3.2 -14.3°
Drops below altitude 10° 17:54:07 10° 344° (NNW) 1,900 5.6 -15.1°
Sets 17:56:17 0° 346° (NNW) 2,798 6.4 -15.4°
